Theta_e
286 286 286 286 285 285 285 285 285 285 284 284 284 284 284 283 283 283 283 283 284 284 284 284 284 284 284 285 285 285 285 285 285 284 284 284 284 285 285 285 285 285 285 285 285 285 285 285 286 287 288 289 290 290 291 291 291 291 291 290 290 290 290 290 290 291 292 292 293 294 294 295 295 294 294 293 294 293 291 290 290 289 289 289 289
286 286 286 286 285 285 285 285 285 285 284 284 284 284 283 283 283 283 283 283 283 283 283 283 283 283 283 284 284 284 284 284 284 284 284 284 284 284 284 284 284 284 284 284 285 285 285 285 285 285 286 287 288 289 290 290 290 290 290 290 290 290 290 289 290 290 290 291 292 293 293 293 293 293 293 293 294 294 293 291 290 290 289 289 289
286 286 286 286 286 285 285 285 285 284 284 284 283 283 283 283 283 283 283 283 283 282 282 282 282 282 282 282 282 282 283 283 283 283 283 283 283 283 283 283 283 283 284 284 284 284 284 284 285 285 285 285 286 287 288 289 289 290 290 290 290 290 290 289 289 289 290 290 291 292 292 292 292 293 293 293 293 293 293 292 292 291 290 289 289
286 286 286 286 286 285 285 285 285 284 284 283 283 283 282 282 282 282 282 282 282 282 282 281 281 281 281 281 281 281 281 281 281 281 281 281 281 281 281 282 282 282 283 283 284 284 284 284 284 285 285 285 285 285 286 287 288 289 289 289 289 289 289 289 289 289 289 289 290 291 291 292 292 293 292 292 292 292 292 292 291 290 290 289 289
286 286 286 286 286 286 285 285 285 284 283 283 283 282 282 282 282 281 281 281 281 281 281 281 280 280 280 280 280 280 280 280 280 280 280 279 280 280 280 280 281 281 282 283 283 283 284 284 284 284 285 285 285 285 286 286 287 288 288 289 289 289 289 289 289 289 288 288 289 289 290 291 292 292 291 290 290 290 290 290 289 289 289 288 289
287 287 286 286 286 286 286 285 285 284 283 283 282 282 282 282 281 281 281 281 280 280 280 280 279 279 279 279 279 279 279 279 279 279 278 278 278 279 279 279 280 280 281 281 282 282 283 283 283 284 284 285 285 285 285 286 286 286 287 288 288 288 288 288 288 288 288 288 288 288 289 290 290 291 290 290 289 289 288 288 288 288 287 287 287
287 287 287 286 286 286 286 286 285 284 283 282 282 282 282 281 281 281 280 280 280 280 279 279 279 279 278 279 278 278 278 278 278 277 277 277 278 278 278 279 279 280 280 281 281 282 282 282 283 283 284 284 285 285 285 285 286 286 286 287 287 288 288 288 288 288 288 288 288 288 288 288 289 290 290 289 289 288 288 287 286 286 286 286 286
287 287 287 286 286 286 286 285 285 284 283 282 282 281 281 281 280 280 280 279 279 279 278 278 278 278 278 278 278 278 277 277 277 277 277 277 277 278 278 279 279 280 280 280 281 281 282 282 282 283 283 284 284 285 285 285 285 286 286 286 287 287 288 288 288 288 288 288 288 288 288 288 288 288 289 288 287 287 287 286 286 285 285 285 286
287 287 286 286 286 285 285 285 285 284 282 281 281 281 280 280 280 279 279 279 278 278 277 277 277 277 277 277 277 277 277 277 277 276 277 277 278 278 279 279 279 279 279 280 280 280 281 281 282 282 283 283 284 284 284 285 285 285 285 286 286 287 287 288 288 288 288 288 288 288 288 287 287 287 287 286 286 287 287 286 286 286 285 285 285
287 287 286 286 285 285 285 285 284 283 282 281 280 280 279 279 279 278 278 277 277 277 276 276 276 276 276 276 276 276 276 276 276 276 277 278 278 278 278 278 278 279 279 279 279 279 280 280 281 281 282 282 283 283 284 284 285 285 285 285 286 286 287 287 288 288 288 288 288 289 288 288 287 287 286 286 287 287 287 286 286 285 285 284 284
287 286 286 285 285 285 285 285 284 282 281 280 279 279 278 278 277 277 277 276 276 276 275 275 275 275 275 275 275 275 275 275 275 276 277 277 278 278 278 278 278 278 278 278 278 279 279 279 280 280 281 281 282 282 283 283 284 284 285 285 285 286 286 287 287 287 288 288 288 289 289 289 288 288 287 287 287 286 286 286 285 285 285 284 285
287 286 286 285 285 284 284 284 283 281 280 279 279 278 277 277 276 276 276 275 275 275 274 274 274 274 273 273 273 273 273 273 274 275 276 276 277 277 277 277 277 277 277 277 277 278 278 278 279 279 279 280 281 281 282 282 283 283 284 284 285 285 285 286 287 287 287 288 288 288 289 289 289 289 288 287 287 286 286 286 285 285 285 285 285
286 285 285 284 284 284 283 282 281 280 279 278 277 277 276 276 275 275 275 274 274 274 273 273 272 272 272 271 271 272 272 272 273 273 274 275 275 275 275 275 275 276 276 276 276 276 277 277 277 278 278 279 279 280 281 281 282 282 283 283 284 284 285 285 286 287 287 288 288 288 288 289 289 289 288 288 287 286 286 286 285 285 285 286 286
285 284 284 283 283 282 281 280 279 278 277 277 276 275 275 275 274 274 274 273 273 272 272 271 271 270 270 270 270 270 270 270 271 272 272 273 273 274 274 274 274 274 274 275 275 275 275 275 276 276 276 277 278 278 279 280 280 281 282 282 283 284 284 285 285 286 287 288 288 288 288 288 288 289 289 288 288 287 286 286 286 285 285 286 286
284 283 283 281 280 280 279 278 277 276 275 275 274 274 274 273 273 272 272 271 271 270 270 269 269 268 268 268 268 268 268 268 269 270 270 271 272 272 272 272 272 272 272 272 272 273 273 273 274 274 274 275 275 276 277 278 279 280 281 282 282 283 283 284 285 285 286 287 288 288 288 288 288 288 289 289 288 288 287 287 287 286 286 286 286
283 282 280 279 278 278 277 276 275 274 274 273 273 273 272 271 270 270 270 270 269 269 268 268 267 267 267 267 266 266 266 267 267 268 269 270 270 270 270 270 270 270 270 270 270 271 271 272 272 273 273 273 274 275 276 277 279 280 280 281 282 283 283 283 284 284 285 285 286 287 287 287 288 288 289 289 288 288 287 287 287 287 286 286 286
281 279 278 277 276 276 275 274 273 273 272 272 271 271 270 269 269 268 268 268 267 267 266 266 266 266 265 265 265 265 265 265 266 267 268 269 269 269 269 269 269 269 269 269 270 270 270 271 271 272 272 273 273 274 275 276 277 278 279 280 281 282 282 283 283 284 284 284 285 285 286 286 287 288 288 289 289 288 287 286 286 286 286 286 286
278 277 276 275 275 274 273 272 272 272 271 271 270 269 268 268 268 267 266 266 266 265 265 265 265 264 264 264 264 264 265 265 265 266 267 267 268 268 268 268 268 269 269 269 269 270 270 271 271 272 272 272 273 274 275 276 276 277 278 279 279 280 281 282 282 283 284 284 285 285 285 286 286 287 288 288 289 289 287 286 286 286 286 286 286
276 275 275 274 273 272 272 271 271 271 270 269 268 267 267 267 267 266 265 265 264 264 264 264 264 264 264 264 264 264 264 264 264 265 266 267 268 268 268 268 269 269 269 269 269 269 270 270 270 271 271 272 273 274 275 275 276 276 277 277 278 279 280 281 282 282 283 284 284 284 285 285 286 287 287 288 288 289 289 288 287 287 286 286 286
274 274 273 272 271 271 271 271 270 270 269 268 267 266 266 266 266 265 264 264 264 263 263 263 263 263 263 263 263 263 263 263 263 264 265 267 267 268 268 268 268 268 268 269 269 269 269 269 270 270 271 272 273 274 274 275 275 276 276 277 277 278 278 279 281 282 283 283 284 284 284 285 285 286 286 287 288 288 289 289 288 287 287 286 286
273 272 272 271 270 270 270 269 269 268 267 267 266 265 265 265 265 264 264 263 263 263 263 263 263 263 263 263 263 263 263 263 263 264 265 266 267 268 268 268 268 269 269 269 269 269 269 269 270 270 271 271 272 272 273 273 274 275 275 276 277 277 277 278 278 279 281 283 284 284 284 284 285 285 285 286 287 287 288 289 288 287 287 287 287
272 271 271 270 269 269 269 268 267 267 266 265 265 265 265 265 264 264 263 263 262 262 262 262 262 262 262 262 262 263 263 263 263 264 265 266 267 268 269 269 269 269 269 270 270 270 270 270 270 270 270 271 271 272 272 273 273 274 274 275 276 277 277 278 278 278 279 281 283 284 284 284 284 285 285 285 286 287 287 288 288 288 287 287 287
271 270 269 269 269 269 268 267 266 265 265 264 264 264 264 264 263 263 263 262 262 262 262 262 262 262 262 262 262 263 263 263 263 264 265 266 267 268 269 269 270 270 270 270 270 270 270 270 270 270 270 271 272 272 273 273 273 274 274 275 276 277 277 278 279 279 279 280 282 283 284 284 284 284 285 285 285 286 287 287 288 288 288 287 287
270 269 268 268 268 268 266 265 265 264 264 264 263 263 263 263 263 262 262 262 262 261 261 262 261 261 262 262 262 263 263 263 264 264 265 266 267 268 269 270 270 271 271 271 271 270 270 270 270 271 271 272 273 273 274 274 274 274 274 275 275 276 277 277 278 279 280 280 281 283 284 284 284 284 285 285 285 286 286 287 287 288 288 287 287
268 268 267 267 267 266 265 264 264 264 263 263 263 263 263 262 262 262 262 261 261 261 261 261 261 261 262 262 262 263 264 264 265 265 266 266 267 268 269 270 270 271 271 271 271 271 271 271 272 272 273 273 273 273 273 273 273 273 274 274 274 275 276 276 277 279 280 281 281 283 284 284 284 284 284 285 285 285 286 286 286 287 287 287 287
267 267 267 266 266 265 264 264 263 263 263 263 262 262 262 262 262 262 261 261 261 261 261 261 261 262 262 262 263 264 264 265 266 266 267 267 267 268 269 269 270 270 271 271 271 271 272 272 272 272 272 272 272 272 272 272 273 273 274 274 274 275 276 276 277 278 279 281 281 282 283 284 284 284 285 285 285 285 285 286 286 286 287 287 287
266 266 266 265 265 264 263 263 263 262 262 262 262 262 262 262 261 261 261 261 261 261 261 262 262 263 263 263 264 265 266 267 267 268 268 268 268 268 269 269 269 270 270 270 270 270 271 271 271 272 272 272 272 273 273 273 273 273 274 274 274 275 275 276 276 277 279 281 281 282 283 284 285 285 284 285 285 285 285 285 286 286 286 286 286
265 265 265 264 264 263 263 262 262 262 262 262 262 262 262 262 261 261 261 261 261 262 262 263 263 264 265 265 266 267 268 268 268 268 269 269 269 270 270 270 270 270 270 270 270 270 270 270 270 270 271 271 271 272 272 272 273 273 273 274 274 274 275 275 276 277 279 280 281 282 283 284 285 285 285 285 285 285 285 285 285 285 285 285 285
264 264 264 263 263 262 262 262 262 261 261 261 261 261 262 261 261 262 262 262 263 264 265 266 266 266 267 267 268 268 269 269 269 269 270 271 271 271 272 272 272 272 272 273 273 272 272 272 271 271 271 271 271 272 272 273 273 273 274 274 274 274 275 276 277 278 279 281 282 282 283 285 285 285 285 285 285 285 285 285 285 285 284 283 284
263 263 263 263 262 262 261 261 261 261 261 261 261 261 261 262 262 262 263 264 265 266 266 267 267 268 268 269 269 269 269 269 269 270 271 271 271 272 272 273 273 273 274 274 274 274 274 274 273 273 273 273 273 273 273 273 273 274 274 274 274 275 275 276 277 278 279 281 282 282 283 284 285 285 285 285 285 285 285 285 285 284 283 282 282
262 262 262 262 261 261 261 261 261 261 260 260 260 260 260 261 263 263 263 263 264 266 267 267 267 267 268 268 268 268 269 269 269 270 271 271 271 272 272 273 273 274 274 274 274 274 274 274 273 273 273 273 273 273 274 274 274 274 274 274 274 275 275 276 276 277 279 281 282 282 283 283 284 285 285 285 285 285 285 285 284 284 283 281 281
262 262 261 261 261 261 261 260 260 260 260 260 260 260 260 260 262 265 265 265 264 264 265 266 266 267 267 267 268 268 268 269 269 270 271 271 271 272 272 273 273 274 274 274 274 273 273 272 272 273 273 273 273 273 274 274 274 274 274 274 274 274 275 275 276 277 279 281 282 283 283 283 284 284 285 285 285 284 284 284 284 283 282 281 281
261 261 261 261 260 260 260 260 260 260 260 260 259 260 260 259 260 262 264 266 266 267 266 265 265 265 266 266 267 267 268 268 269 269 270 270 271 272 272 272 272 273 273 273 272 272 272 272 272 272 273 273 273 274 274 274 274 274 274 274 274 274 275 275 276 277 278 280 281 282 283 283 284 284 285 284 284 284 283 283 283 282 282 281 281
261 261 261 260 260 260 260 260 260 259 259 259 259 259 260 260 260 260 261 262 264 267 268 267 266 264 264 265 266 266 267 268 268 269 269 270 271 271 271 270 270 270 271 271 271 271 271 272 272 272 273 273 273 274 274 274 274 274 274 274 274 274 275 275 276 277 278 280 281 282 283 283 284 284 284 284 283 283 282 282 282 281 281 280 280
261 261 261 261 260 260 260 259 259 259 259 259 259 259 259 260 260 260 260 260 260 261 263 264 264 263 263 264 265 265 266 267 267 268 269 269 269 269 268 267 267 268 268 269 269 270 270 271 272 272 272 272 273 274 274 275 275 275 274 274 274 275 275 276 277 278 278 280 281 282 283 284 284 284 284 283 283 282 282 281 281 280 280 280 280
261 261 261 261 260 260 260 259 259 259 259 259 259 260 260 260 260 260 260 260 260 260 260 261 262 262 262 263 263 264 265 265 266 268 268 267 267 266 265 265 266 266 266 267 267 268 269 270 270 271 271 272 272 273 274 275 275 275 274 274 274 275 275 276 277 278 279 280 281 282 283 283 283 283 283 282 282 282 281 280 280 280 280 279 279
261 261 261 261 260 260 259 259 259 259 259 259 259 259 259 259 259 260 260 260 260 260 260 261 261 261 262 262 262 263 264 265 266 266 265 264 264 263 263 264 265 265 265 266 266 267 267 268 268 269 269 270 271 272 274 275 275 275 275 275 275 275 275 276 277 278 279 280 281 282 282 283 283 283 282 282 281 281 280 280 279 279 279 279 278
260 260 260 260 259 259 259 259 259 259 259 259 259 259 259 259 259 259 260 260 260 260 260 260 260 261 261 261 261 262 263 265 265 264 262 262 262 262 262 263 263 264 264 264 264 265 266 266 267 267 268 269 270 272 274 276 276 276 275 275 276 276 277 278 279 279 280 281 281 282 282 282 282 282 282 281 280 280 280 279 279 278 278 278 277
260 260 260 259 259 259 259 258 258 259 258 258 258 258 259 259 259 259 259 259 260 260 260 260 260 260 261 261 261 263 264 264 263 262 261 261 261 261 262 262 262 263 263 263 263 263 264 265 266 266 267 268 270 272 273 275 276 276 276 276 277 277 278 279 279 280 280 281 281 281 282 282 282 282 281 281 280 280 279 278 278 277 277 277 276
260 260 260 260 259 258 259 258 258 258 258 258 258 258 258 258 259 259 259 259 259 259 260 260 260 260 260 261 262 264 264 262 261 260 260 260 261 261 261 261 261 262 262 262 262 263 263 264 265 266 267 268 270 271 272 273 274 276 277 277 278 278 279 279 280 280 280 280 281 281 281 281 281 281 280 280 280 279 278 278 277 277 277 276 276
260 260 260 260 259 258 258 258 258 258 258 258 258 258 258 258 259 259 259 259 259 259 259 260 260 260 260 261 263 264 263 261 260 260 260 260 260 260 261 261 261 261 261 261 262 262 263 264 265 265 266 267 269 270 270 271 272 273 275 276 277 278 278 279 279 279 280 280 280 280 280 280 280 280 279 279 278 278 277 277 276 276 276 276 275
260 260 260 259 259 258 258 258 258 258 258 258 258 258 258 258 258 258 258 258 259 259 259 259 260 260 260 261 262 263 261 260 260 260 260 260 260 260 260 261 261 261 261 262 262 262 263 264 264 265 265 266 267 268 269 269 270 271 273 274 275 276 277 277 278 278 279 279 279 279 279 278 278 278 278 277 277 276 276 275 275 275 275 275 274
260 260 259 259 259 259 258 258 258 258 258 258 258 258 258 258 258 258 258 258 258 259 259 259 260 260 260 261 261 261 261 260 260 260 260 260 260 260 261 261 261 261 262 262 263 263 263 263 264 264 265 266 266 267 268 268 269 270 271 273 274 275 275 275 276 276 277 277 277 277 277 277 277 276 276 276 275 275 274 274 274 274 274 273 273
259 259 259 259 259 259 259 258 258 258 258 258 258 258 258 258 258 258 258 258 258 259 259 259 259 260 260 260 260 260 260 260 260 260 260 261 261 261 261 261 261 262 262 263 263 264 264 264 264 265 265 266 266 267 268 268 268 269 270 271 272 273 273 274 274 274 275 275 275 275 275 275 275 275 275 274 274 274 273 273 273 273 273 272 272
259 259 259 259 259 259 259 259 258 258 258 258 258 258 258 258 258 258 258 258 258 259 259 259 259 259 259 260 260 260 260 260 260 261 261 261 261 261 261 261 262 262 262 263 263 264 264 265 265 265 265 266 267 267 268 268 268 269 269 270 271 271 272 272 273 273 274 274 274 274 274 274 273 273 273 273 273 273 272 272 272 272 272 272 271
259 259 259 259 259 259 259 259 258 258 258 258 258 258 258 258 258 258 258 258 258 258 259 259 259 259 259 259 259 260 260 260 260 261 261 261 261 261 261 261 262 262 262 263 263 264 264 265 265 266 266 266 266 267 268 268 268 269 269 269 270 270 271 271 272 272 273 273 273 273 273 272 272 272 272 272 272 272 272 271 271 271 271 271 271
259 259 259 259 259 259 259 259 259 258 258 258 258 258 258 258 258 258 259 259 259 259 259 259 259 259 259 259 259 259 259 260 260 260 260 261 261 261 261 261 262 262 263 263 263 264 264 265 265 266 266 266 266 267 267 267 268 268 268 269 269 270 270 271 271 272 272 272 272 272 272 271 271 271 271 271 271 271 271 271 271 271 271 271 271
259 259 259 259 259 259 259 259 259 258 258 258 258 258 258 258 258 259 259 259 259 259 259 259 259 259 259 259 259 259 259 260 260 260 260 261 261 261 261 261 262 262 263 263 263 263 264 264 265 265 266 266 267 267 267 267 267 267 268 268 269 269 270 270 270 271 271 271 271 271 271 271 270 270 270 270 270 270 270 270 270 270 270 270 271
260 260 259 260 260 259 259 259 258 259 259 258 258 258 258 258 259 259 259 260 260 260 259 259 259 259 259 260 260 260 260 260 260 261 261 261 261 261 262 262 262 262 263 263 263 263 264 264 264 265 265 266 266 267 267 267 267 267 267 268 268 269 269 269 270 270 270 270 270 270 270 270 270 269 270 270 269 269 269 269 270 270 270 270 270
260 260 260 260 260 259 259 259 259 259 259 258 258 258 258 258 259 260 260 260 260 260 260 260 260 260 260 260 260 260 260 260 261 261 261 261 262 262 262 262 262 263 263 263 263 263 263 264 264 264 265 265 266 266 267 267 267 267 267 267 268 268 269 269 269 269 269 269 269 269 269 269 269 269 269 269 269 269 269 269 269 269 269 269 269
260 260 260 260 260 259 259 259 259 259 259 258 258 258 258 258 259 260 260 260 260 260 260 260 260 260 260 260 260 260 261 261 261 261 261 261 262 262 262 262 262 263 263 263 264 264 264 264 264 264 264 265 265 266 266 266 267 267 267 267 267 268 268 268 268 269 269 269 269 269 269 269 268 268 268 268 268 268 269 269 269 269 269 268 268
Wind_Speed
13 13 13 12 11 11 12 13 15 15 15 16 16 16 16 18 20 20 21 22 23 23 23 23 24 25 25 26 27 28 29 30 30 30 30 30 29 28 28 28 28 28 29 29 29 28 28 28 28 27 27 28 29 29 29 28 27 27 26 27 29 30 29 26 18 17 22 26 27 28 29 31 36 39 40 41 43 44 46 47 47 47 46 46 45
12 12 12 12 12 12 13 14 16 17 17 18 18 18 18 19 20 21 22 23 24 24 25 25 25 26 26 26 27 27 28 29 30 31 32 32 32 32 31 30 30 31 30 31 30 30 30 30 29 28 27 28 29 29 30 29 28 29 27 26 28 29 27 28 24 19 21 25 27 28 29 30 34 38 39 41 43 43 46 48 48 48 49 48 47
9 10 11 12 13 14 14 15 17 18 19 20 20 20 20 21 21 22 23 24 24 25 26 27 28 28 29 29 29 30 31 31 31 32 32 33 34 35 34 33 32 32 32 33 32 31 31 31 31 30 29 29 30 29 29 30 29 30 30 28 28 28 27 28 28 24 23 25 26 28 30 31 34 37 38 41 42 43 46 48 48 49 50 49 48
6 8 9 10 12 14 15 16 18 19 20 21 22 22 22 23 23 23 24 25 26 27 28 29 30 31 31 32 33 33 34 34 34 34 34 33 34 35 36 35 34 34 33 34 34 33 33 34 34 33 31 30 31 30 28 29 30 30 31 30 29 29 28 27 29 30 26 25 26 27 29 31 35 37 37 38 41 43 45 46 46 48 49 48 48
4 5 6 8 10 13 15 18 20 21 22 22 23 23 24 24 25 25 27 28 29 30 31 32 32 33 33 34 34 35 35 35 36 36 35 34 33 33 34 34 34 35 35 35 35 35 35 36 37 35 33 32 32 32 30 29 29 29 30 31 30 29 29 27 29 31 29 28 28 26 26 30 33 35 35 36 37 39 41 43 44 45 45 45 46
3 5 6 8 10 13 15 18 21 22 22 22 23 23 24 25 26 27 28 30 32 33 34 35 35 35 35 35 34 35 35 35 35 35 35 33 32 33 33 33 33 34 35 35 36 36 36 37 38 37 35 34 34 34 32 31 31 30 30 31 30 29 29 28 28 29 30 31 30 27 26 29 31 33 34 35 36 37 37 38 40 41 40 40 42
4 6 8 10 12 14 16 18 22 24 24 23 23 23 24 25 26 27 29 31 33 35 36 37 37 36 36 36 35 35 35 36 36 35 33 32 31 31 33 33 34 34 35 35 36 36 36 37 38 38 36 36 36 36 34 33 32 32 32 31 30 28 29 30 28 27 28 29 29 27 27 28 30 33 34 34 35 37 38 35 33 35 38 39 42
6 7 9 10 12 13 15 17 21 24 25 24 24 24 25 27 28 29 30 32 34 35 36 37 37 37 36 36 36 37 37 39 38 34 32 31 30 31 32 33 34 35 36 36 37 37 37 37 38 38 38 38 38 38 37 35 33 33 33 31 29 28 29 29 28 27 27 27 27 27 25 25 27 30 30 27 29 34 36 32 29 32 37 40 43
7 8 9 10 11 13 14 17 21 24 25 25 25 26 27 28 30 31 33 34 35 36 36 35 35 36 37 37 38 38 39 40 39 34 31 32 32 32 32 32 33 35 36 38 39 39 39 39 38 38 38 38 39 40 39 38 36 36 35 33 30 29 29 29 27 26 25 25 25 25 23 22 25 26 25 27 31 31 29 30 30 31 32 34 38
8 9 10 11 12 13 15 18 22 25 26 25 26 27 28 30 31 33 35 36 37 37 37 36 35 35 36 38 39 39 39 40 39 35 32 31 32 33 34 34 34 35 37 38 40 41 40 40 40 40 40 39 39 40 41 41 40 40 40 37 34 32 31 29 28 27 25 23 24 24 20 20 25 27 27 31 34 29 26 30 31 28 25 24 30
9 10 11 11 13 15 17 21 25 27 26 26 27 28 29 31 33 35 36 37 37 37 37 37 37 36 35 37 38 39 40 40 36 33 32 31 31 33 35 37 37 37 37 38 40 41 41 41 40 41 41 41 40 40 39 40 40 41 42 41 39 37 35 33 31 29 27 24 26 25 21 22 28 28 28 31 31 30 31 32 30 26 24 20 19
10 11 12 12 14 16 20 24 26 27 27 27 28 29 31 33 34 36 36 37 37 37 37 37 38 37 35 36 38 39 40 38 33 31 32 31 31 31 34 37 39 40 40 39 40 41 41 42 41 41 42 42 42 41 40 40 40 40 41 42 42 42 41 40 38 35 30 27 28 28 26 27 30 28 28 29 29 31 32 31 30 31 28 25 22
11 11 11 13 15 18 21 24 25 26 26 27 29 31 33 34 35 35 36 36 36 37 37 37 38 36 34 34 37 39 39 35 31 31 32 32 32 32 34 37 40 41 43 42 42 42 41 41 41 42 42 41 41 41 40 41 41 40 40 41 43 44 44 46 46 44 40 35 31 32 34 32 31 29 29 29 29 31 31 31 33 33 29 30 33
10 11 11 14 17 19 21 22 23 24 26 27 30 31 32 33 33 33 35 35 36 37 38 38 37 36 33 33 35 38 37 33 30 32 33 33 33 33 34 36 36 37 39 39 40 41 40 39 40 42 42 41 41 42 42 43 42 41 39 39 41 43 43 45 46 47 47 43 39 40 42 39 35 35 32 29 31 34 34 34 34 34 34 36 37
10 12 13 16 17 19 20 21 22 24 26 28 29 30 30 31 32 32 33 34 35 36 37 37 37 36 34 32 35 38 37 31 30 33 33 33 33 33 33 33 34 35 37 36 37 39 40 41 42 43 44 44 43 41 41 41 41 41 40 40 41 42 43 44 44 45 45 45 44 46 48 45 42 41 38 33 34 37 37 39 39 38 39 38 34
11 13 15 15 16 17 19 21 23 25 26 27 28 28 29 30 30 30 32 33 34 34 35 35 35 35 35 33 34 39 39 32 30 32 32 31 33 32 32 33 34 35 36 36 35 36 37 38 39 41 43 44 43 39 38 39 39 40 41 41 41 41 42 44 45 46 46 45 45 47 50 50 46 45 44 38 36 36 36 37 37 36 33 29 27
12 14 14 15 16 17 19 21 23 25 25 26 27 28 28 29 29 29 30 33 33 33 34 35 33 33 35 34 33 38 40 34 29 31 32 32 32 32 31 32 32 33 34 34 33 33 33 33 34 36 38 39 38 36 35 36 37 39 41 42 41 40 41 42 43 45 47 48 48 49 51 53 50 49 48 44 39 36 32 30 31 32 27 18 17
12 13 13 15 17 18 20 21 22 23 24 24 26 26 27 28 28 28 29 31 33 33 33 34 34 32 33 34 33 35 39 35 30 31 33 32 32 32 31 31 31 32 33 33 32 33 33 32 32 33 34 35 35 35 34 34 36 37 38 39 39 40 42 43 41 42 42 44 46 49 51 53 51 49 48 46 43 39 35 33 33 31 26 20 18
11 12 14 16 18 19 19 20 20 21 23 23 24 25 26 27 28 28 28 30 32 33 32 33 34 32 32 34 33 32 36 37 33 32 33 31 30 31 31 31 31 31 32 33 32 32 33 33 32 32 34 35 35 35 34 34 35 37 37 36 35 38 41 41 39 39 39 40 42 45 47 50 49 47 47 47 46 43 41 40 38 33 29 28 26
11 13 15 17 18 18 17 18 18 20 21 22 23 23 25 26 27 28 29 30 32 33 32 32 34 34 33 33 33 31 34 37 34 31 31 30 30 30 31 32 33 33 33 34 35 34 33 33 32 31 32 34 34 34 35 34 35 36 36 34 34 38 42 41 39 38 38 39 41 43 44 46 45 44 44 45 45 44 44 44 42 39 35 32 29
13 14 16 17 17 17 16 17 18 18 19 21 23 23 24 25 27 28 30 31 32 33 33 32 34 35 33 31 31 31 31 33 33 31 30 30 30 30 32 33 33 35 35 35 35 34 33 32 33 32 33 36 37 38 39 38 39 39 39 37 37 40 42 42 42 42 41 40 40 41 42 43 42 41 41 41 42 43 43 44 44 43 41 38 32
14 15 16 16 16 16 16 16 17 18 18 19 21 24 24 24 26 28 30 31 32 33 33 32 32 33 32 30 30 32 31 32 32 31 30 30 30 30 32 33 32 34 36 34 32 34 34 35 36 36 37 38 39 39 39 39 39 40 42 42 42 43 43 42 41 41 41 40 40 38 38 39 39 39 39 39 40 41 42 43 45 45 45 45 40
14 15 16 16 16 16 16 17 17 17 18 19 20 23 25 25 26 28 29 31 32 32 31 30 30 32 32 31 30 32 33 33 33 32 31 31 31 31 32 33 32 34 35 33 32 35 37 38 39 38 37 38 39 39 39 39 39 39 40 42 43 44 44 42 39 37 37 39 39 37 36 36 36 36 37 39 40 41 41 42 44 45 45 46 46
14 15 15 16 16 16 16 17 17 17 18 18 20 22 24 26 27 27 28 28 30 30 29 29 28 29 31 32 33 34 35 35 35 33 32 32 32 32 33 33 33 34 36 37 36 38 39 39 40 39 38 38 39 40 40 41 41 41 41 42 44 44 43 41 38 36 34 34 35 36 37 37 37 36 37 39 40 40 41 41 42 43 43 43 45
14 15 15 16 16 17 17 17 17 17 17 18 20 22 24 26 27 27 28 27 28 29 29 28 28 29 30 32 34 36 35 35 35 35 34 33 32 32 33 34 34 35 37 39 39 40 41 41 43 43 41 41 41 40 40 40 39 39 40 41 42 42 41 39 39 37 33 32 34 36 37 37 38 38 39 39 39 38 38 37 37 38 38 39 41
14 15 15 16 16 17 18 18 18 18 18 18 20 21 23 25 27 28 28 27 27 28 28 27 27 28 28 30 33 35 35 34 34 35 34 34 35 35 35 36 37 38 39 40 40 42 43 43 43 43 42 42 40 39 39 38 37 38 39 40 41 40 39 40 41 38 34 33 34 36 40 40 39 39 38 36 36 36 35 34 33 32 33 33 34
14 15 15 16 17 17 18 19 19 19 20 20 21 22 23 24 26 28 28 28 27 27 27 27 26 27 29 31 32 33 33 34 34 34 35 35 36 37 37 37 37 38 39 40 41 43 44 43 41 41 41 40 40 40 40 39 38 37 37 38 39 39 39 41 42 41 38 37 36 38 42 42 38 37 36 34 34 35 34 33 31 30 31 31 28
14 15 16 16 17 17 18 19 20 21 21 21 21 23 24 24 26 27 28 28 28 28 27 27 27 29 32 33 32 31 32 33 33 34 35 35 35 35 34 34 34 34 36 39 41 42 42 41 39 37 37 37 37 38 37 37 36 36 36 36 37 38 39 41 41 42 42 41 39 39 39 37 34 34 33 32 32 33 33 33 31 30 30 29 24
14 15 16 17 18 18 19 19 20 21 22 23 23 23 24 24 25 28 29 27 27 28 30 30 31 32 33 33 32 32 32 32 33 35 36 36 38 38 36 36 37 36 35 38 38 35 32 31 29 28 28 30 31 31 31 33 34 34 35 36 36 36 37 37 36 38 40 38 37 36 34 32 30 31 31 29 30 31 31 31 30 29 27 26 23
15 16 16 17 18 19 19 20 20 21 22 23 24 25 25 23 23 26 28 28 26 27 29 31 33 35 36 35 33 32 33 35 36 36 37 38 40 39 38 39 40 39 38 39 38 31 25 23 22 22 24 25 25 26 29 31 31 30 31 34 35 34 34 34 34 36 37 34 33 32 30 28 26 25 27 27 27 29 30 30 29 27 25 23 22
15 16 17 18 19 19 20 20 20 20 21 21 23 25 28 29 28 26 25 26 27 27 28 29 31 32 33 34 34 33 34 36 37 36 37 38 39 38 38 38 38 39 40 39 34 26 22 21 21 23 25 25 25 28 30 30 28 28 28 30 33 34 33 31 32 33 33 31 28 28 29 28 26 24 24 25 25 26 28 28 28 27 25 25 23
14 16 17 18 19 19 19 20 20 20 21 21 22 23 25 28 32 32 29 27 27 28 28 28 28 29 29 31 33 34 34 34 35 36 36 36 37 38 39 38 36 37 38 35 28 23 22 22 23 24 26 26 28 31 33 31 29 29 28 28 30 34 32 29 29 31 30 28 25 24 25 27 27 26 27 27 26 26 25 25 26 25 24 24 24
14 16 18 19 19 19 19 19 19 19 20 21 22 22 22 22 26 31 35 36 35 33 29 25 24 25 27 29 31 33 34 34 34 35 35 35 35 36 37 37 34 31 30 27 23 23 25 25 25 26 27 29 30 32 33 33 32 31 30 28 29 33 34 32 31 31 29 28 26 24 24 26 27 26 26 27 26 24 23 23 24 23 22 21 21
13 15 17 18 17 18 18 18 19 19 20 21 21 22 22 21 22 24 28 32 35 37 37 35 32 29 29 31 32 31 32 33 33 33 34 34 34 35 34 31 28 26 25 23 22 23 24 24 25 26 28 31 32 32 33 35 34 31 29 27 28 32 34 32 30 28 27 27 26 24 24 26 26 25 24 23 23 23 22 22 23 22 21 20 19
14 15 16 16 16 16 17 17 18 19 20 21 21 20 21 22 22 22 23 23 25 29 34 39 42 39 35 32 33 33 32 33 33 33 32 32 33 32 30 25 23 23 23 23 23 24 25 25 26 29 31 33 33 33 34 36 34 29 26 25 26 28 28 27 26 26 27 27 26 25 24 24 24 23 22 21 20 20 20 21 23 23 22 22 20
14 15 15 15 15 16 16 17 18 19 19 19 20 20 21 21 22 22 23 22 23 25 28 33 39 41 37 32 30 32 33 32 32 31 30 30 29 28 25 21 20 21 22 23 23 25 26 26 27 30 32 33 33 34 35 35 32 27 25 25 25 24 25 25 25 25 26 26 26 24 22 21 21 22 21 20 21 21 20 21 23 23 24 24 22
14 14 14 14 14 15 16 17 17 17 18 18 19 20 20 21 21 22 23 23 23 24 26 29 32 36 37 37 35 34 34 33 31 29 28 27 27 25 22 20 20 21 21 22 23 25 26 28 29 30 32 32 33 34 35 34 30 26 24 25 25 25 25 27 27 26 26 26 25 23 20 18 18 20 20 19 19 20 21 22 23 23 25 26 23
13 13 13 13 13 14 15 16 17 17 17 18 18 18 19 20 21 21 21 22 22 23 25 27 27 27 31 36 38 37 36 34 32 32 31 30 28 27 25 23 22 21 21 22 23 24 26 28 30 31 33 33 32 32 33 32 28 24 23 23 24 24 25 26 27 27 26 25 23 22 21 19 18 20 21 20 19 20 21 22 22 21 21 22 20
12 12 12 11 11 12 13 15 16 17 17 17 17 17 18 19 20 20 21 22 23 23 24 25 25 25 28 32 34 34 33 31 31 33 34 33 31 29 28 26 25 24 24 25 27 27 27 29 30 32 33 33 30 29 30 30 26 23 22 23 23 23 24 24 24 24 24 24 23 21 21 20 20 20 22 22 22 21 21 22 23 21 20 20 21
12 12 12 11 10 11 12 14 15 15 16 17 17 17 18 18 19 20 21 21 22 23 23 23 25 27 29 30 30 29 28 27 27 28 30 30 30 29 28 27 27 27 28 30 31 31 30 30 30 32 33 32 29 28 29 28 26 24 22 20 20 22 23 24 24 23 22 22 22 20 20 20 19 19 21 21 21 21 21 22 23 23 22 21 21
12 12 12 10 10 11 12 12 13 14 15 16 17 17 17 18 18 19 20 20 21 23 23 24 25 27 28 27 26 25 24 24 25 25 26 26 27 27 27 27 28 28 30 31 31 31 30 30 30 31 33 31 28 27 28 27 26 26 25 22 20 20 20 21 22 21 20 20 19 19 19 18 18 18 19 19 18 19 20 20 20 20 20 18 19
11 11 11 10 10 10 11 12 12 13 14 15 16 16 17 18 18 19 19 20 21 22 23 24 26 28 28 26 24 24 23 23 24 24 25 25 25 26 26 27 28 29 30 30 30 30 30 29 29 30 31 30 28 28 29 30 29 28 26 24 22 20 19 18 17 16 15 14 14 14 14 14 14 15 15 16 17 17 17 18 18 18 18 18 19
10 10 10 9 9 9 10 11 11 12 13 14 15 15 15 17 17 18 18 19 20 21 22 24 26 28 28 27 25 24 25 25 25 25 25 26 26 27 27 28 29 29 30 29 29 28 28 28 28 29 29 29 28 28 29 30 29 28 26 23 21 18 17 15 13 11 8 7 7 8 8 9 11 12 13 15 16 17 17 18 18 18 18 19 20
9 9 9 9 9 9 9 9 10 11 12 12 13 13 14 15 16 16 17 18 19 20 20 22 24 26 27 28 27 26 26 26 26 26 26 27 28 28 29 29 30 30 30 29 29 28 27 27 28 29 28 28 28 28 28 27 26 25 24 21 18 17 15 14 12 9 6 3 3 4 7 8 10 12 14 16 17 18 17 18 18 18 18 19 19
9 8 8 9 9 8 8 9 9 10 11 12 12 13 13 13 14 15 16 17 18 19 20 21 22 24 25 26 27 27 26 27 27 27 27 28 28 29 30 30 30 30 30 30 29 29 28 28 29 29 29 29 29 28 28 27 26 24 22 20 17 16 14 12 10 8 5 1 2 5 7 8 10 13 14 16 17 18 18 18 19 19 19 19 19
8 8 8 8 8 8 8 9 9 10 10 10 12 13 13 13 13 14 14 16 17 18 19 21 22 23 24 25 25 26 26 26 27 27 27 28 28 29 30 30 30 30 30 29 29 29 29 29 29 29 29 29 30 29 28 28 27 25 23 21 18 15 13 11 9 6 3 1 3 5 8 9 11 12 14 15 17 17 17 18 18 18 18 18 18
8 8 8 8 8 8 8 8 8 9 9 9 10 12 12 12 13 13 14 15 16 17 19 21 21 22 23 24 24 25 25 25 26 27 27 28 28 29 29 30 30 30 30 30 30 30 31 31 30 29 29 29 30 30 29 28 27 25 24 22 20 17 14 12 9 6 4 3 4 7 9 11 12 13 14 16 17 17 17 18 18 18 18 18 18
8 8 8 8 7 7 7 8 8 8 9 9 10 11 11 12 12 13 13 15 16 17 18 20 21 22 23 23 23 24 24 25 25 26 27 28 28 29 29 30 30 29 29 30 30 30 31 32 31 31 30 29 29 29 29 29 28 27 25 23 21 18 15 12 10 7 5 5 6 8 11 13 14 14 15 16 17 17 18 18 18 18 19 19 19
8 7 7 7 6 6 7 7 7 8 8 9 10 11 11 11 12 12 13 14 15 16 18 19 20 21 22 23 23 24 24 25 26 27 28 28 29 29 29 29 29 29 29 29 29 30 30 31 31 31 31 31 30 29 29 29 28 27 25 23 20 18 15 13 11 9 7 7 8 10 12 14 16 16 16 17 17 18 18 18 18 19 19 19 18
8 7 7 6 6 6 6 6 7 7 7 8 9 11 11 11 12 12 13 14 15 16 17 18 19 20 20 21 22 23 24 24 25 26 27 27 28 28 29 29 29 29 29 28 28 29 29 30 30 31 32 32 32 30 30 29 29 27 25 23 21 18 16 14 12 10 9 10 11 13 14 16 18 18 18 18 19 19 19 19 19 19 19 19 19
8 7 6 7 6 6 6 6 6 7 7 8 9 10 11 11 12 12 12 13 15 16 17 17 18 19 19 20 21 22 22 23 24 25 25 26 27 27 28 28 28 28 28 28 27 28 28 29 29 29 30 31 32 31 30 30 29 27 25 24 22 20 18 15 13 12 11 12 13 15 17 18 19 20 19 20 20 20 20 19 19 19 20 20 20
Wind_Direction
78 76 74 70 62 53 40 32 29 25 23 20 17 14 7 2 1 359 357 357 356 354 353 352 350 347 345 343 341 340 338 337 336 335 332 330 329 327 326 325 323 321 320 318 319 319 317 315 314 312 311 307 301 298 294 291 291 288 284 279 272 267 262 256 258 270 267 261 261 261 258 253 249 246 242 240 240 239 239 240 239 238 237 236 236
71 69 65 60 51 42 32 24 19 16 14 11 9 8 4 0 358 354 353 352 350 348 346 344 342 340 338 336 334 332 330 329 328 327 326 325 323 322 321 320 318 316 314 312 312 313 312 309 308 309 310 307 303 301 297 293 290 286 282 279 274 270 265 258 258 266 270 265 260 259 258 251 247 246 242 239 240 240 239 238 237 237 237 236 235
60 54 48 42 36 28 21 15 11 8 6 4 2 1 358 356 353 350 347 346 344 342 341 339 337 334 332 330 329 327 325 324 322 321 320 319 319 318 316 315 313 311 309 307 306 306 305 303 301 302 304 302 300 299 298 294 291 286 282 278 273 271 267 261 258 261 268 270 263 257 256 251 249 248 245 242 242 239 238 238 237 237 236 234 233
47 37 30 25 20 16 12 8 3 0 358 356 354 353 351 349 347 345 342 340 338 336 335 333 332 330 328 326 325 323 322 322 320 318 317 316 315 313 313 311 309 307 304 302 301 301 300 297 296 296 296 294 293 293 293 292 290 286 283 279 274 271 268 263 259 259 264 270 265 258 256 254 254 252 247 241 238 235 235 235 235 234 234 232 231
24 13 5 0 0 2 2 1 358 354 351 348 347 345 344 342 341 340 338 335 334 332 331 330 328 326 325 323 322 321 320 319 317 315 314 313 312 310 310 308 307 305 302 299 298 296 295 293 292 293 291 288 287 287 287 287 286 284 281 279 277 274 270 264 260 258 259 263 265 263 257 254 254 252 245 237 232 231 232 233 232 232 232 231 230
349 339 334 334 337 342 348 351 351 348 344 341 339 338 337 336 335 334 333 331 329 328 327 327 326 323 321 320 318 317 317 315 313 311 311 311 311 310 308 306 304 302 300 297 295 293 291 290 289 288 286 283 282 283 283 282 281 279 278 278 277 275 272 267 262 258 256 259 264 264 257 252 249 248 245 238 230 227 228 230 231 230 229 229 229
318 315 312 315 320 326 333 339 342 341 337 334 333 332 331 330 329 328 327 325 324 323 323 323 321 320 318 317 316 315 314 312 309 309 309 310 310 309 307 305 303 300 298 295 293 292 289 287 287 285 282 280 279 279 279 279 277 276 275 276 275 273 270 268 265 260 256 258 260 260 258 253 247 246 247 240 232 229 225 222 224 226 226 227 228
297 297 295 300 309 315 322 329 334 334 331 328 327 326 326 325 325 324 323 322 320 320 320 319 317 316 314 313 313 312 311 310 308 309 310 310 309 307 304 302 301 299 297 295 293 292 289 287 285 283 280 278 277 276 276 275 274 274 273 272 271 269 267 266 264 260 257 258 258 258 257 253 245 242 241 232 225 227 225 218 218 221 221 225 227
284 285 284 291 300 309 317 324 329 329 327 324 323 323 322 322 321 321 320 319 318 317 316 315 314 313 311 311 310 310 309 307 307 310 311 311 309 306 303 300 298 296 295 294 292 291 289 288 286 283 281 278 276 275 274 272 271 270 271 270 268 266 264 263 261 259 257 257 258 257 253 249 241 234 229 222 221 226 224 217 221 223 220 223 228
275 277 279 287 297 306 312 319 323 323 322 320 320 320 319 319 318 318 317 316 315 315 314 313 312 310 310 309 308 308 306 305 306 309 310 309 308 306 303 300 297 295 292 291 290 289 288 287 286 285 284 282 279 276 274 273 270 268 268 268 265 264 263 261 258 256 255 255 256 255 250 248 243 232 228 229 228 228 222 215 219 221 214 220 232
269 272 276 284 294 302 309 314 317 318 317 317 317 317 317 317 316 315 314 314 314 314 312 311 310 309 309 308 307 306 304 304 307 310 309 308 307 306 304 301 298 295 292 289 288 288 287 286 285 285 285 284 283 281 278 275 272 269 268 267 265 262 259 258 257 254 252 252 255 255 250 250 249 239 233 234 230 225 223 219 216 213 206 211 229
267 270 275 285 295 303 308 311 312 313 313 314 315 316 315 314 314 314 313 313 313 312 310 309 308 307 308 306 305 304 302 304 309 309 307 307 307 305 302 299 297 294 292 289 287 287 286 286 285 284 283 283 282 282 281 279 276 273 271 269 266 263 259 257 256 253 250 250 252 253 249 250 253 247 237 233 228 224 225 222 217 214 211 214 221
264 268 278 289 298 305 307 308 308 309 310 312 313 313 312 312 313 313 312 312 311 309 308 307 305 306 307 305 304 302 302 305 309 308 307 307 306 305 301 296 293 291 289 288 287 286 286 287 287 285 283 282 282 281 281 281 281 279 275 271 268 265 262 259 256 254 251 249 249 252 250 250 253 251 244 236 227 222 221 222 222 219 218 222 225
258 269 283 294 301 304 304 304 305 306 308 309 309 309 310 311 311 311 311 310 309 307 306 306 305 305 305 305 304 302 302 306 309 307 306 306 305 303 299 294 292 290 288 287 287 287 286 286 286 285 284 283 282 281 282 282 283 281 278 273 269 265 263 260 257 255 252 249 248 251 252 251 251 253 252 243 232 225 221 221 223 222 223 229 231
259 275 288 296 299 301 302 302 303 305 306 307 307 307 308 308 309 309 309 307 306 305 305 304 304 305 306 305 304 301 301 306 308 305 305 305 304 302 298 294 292 290 288 288 288 287 286 285 284 283 283 283 282 281 282 282 282 280 277 273 270 266 263 260 258 255 253 250 248 250 252 252 251 252 253 248 241 237 232 229 229 227 227 233 235
270 282 290 295 298 299 301 302 302 304 306 307 307 307 308 307 307 308 308 306 305 304 303 303 303 304 305 305 303 301 302 305 307 305 305 305 304 301 298 294 291 289 288 288 288 287 286 286 285 284 283 283 282 281 281 281 281 280 278 276 272 268 263 260 259 257 256 254 252 252 254 254 252 251 251 248 245 243 238 234 231 227 225 229 232
277 284 289 294 297 299 300 302 304 306 306 306 306 307 307 307 308 309 307 306 305 304 303 302 302 302 302 303 302 301 302 305 306 305 305 304 302 300 296 292 290 288 288 289 289 289 288 287 287 287 286 285 285 284 282 280 279 278 278 277 276 273 269 264 261 259 258 257 256 255 257 257 255 253 252 249 246 243 235 228 225 222 220 224 230
277 285 291 295 297 299 301 303 305 305 305 305 306 307 308 308 309 310 308 305 304 302 301 300 300 300 300 301 301 301 301 304 306 305 303 302 299 297 294 290 289 288 288 289 289 289 288 288 288 288 288 288 288 288 286 282 279 277 276 276 276 274 271 268 265 262 259 258 257 256 256 256 255 254 252 250 247 241 233 228 226 223 220 223 230
279 288 293 295 296 299 302 304 304 304 305 306 307 308 309 309 310 310 308 304 302 301 300 299 299 299 299 299 300 300 300 304 306 304 302 300 297 295 292 288 287 288 289 290 290 290 290 290 290 289 288 288 288 288 287 283 278 274 272 273 274 272 270 270 269 266 261 257 255 254 254 254 253 252 250 249 247 241 235 233 230 225 222 227 230
286 291 293 294 297 301 305 305 304 305 306 308 310 310 310 311 311 310 308 304 301 299 299 298 298 298 299 300 301 301 302 305 306 303 299 297 296 294 291 289 288 288 288 287 287 288 288 289 289 289 290 290 290 290 289 286 282 278 272 267 265 266 270 272 272 271 266 259 254 252 252 253 252 250 249 247 246 242 237 235 232 227 226 229 229
292 294 296 299 303 307 309 308 307 308 309 312 311 310 312 312 311 311 308 304 301 299 299 299 298 298 300 301 302 303 304 303 301 299 296 296 295 293 290 288 287 287 286 284 283 283 285 286 288 288 289 289 289 289 287 284 283 281 277 270 266 266 269 270 270 271 270 266 259 253 250 250 250 249 247 245 244 241 238 235 233 229 228 229 228
295 297 300 304 308 312 313 311 311 311 313 314 311 310 313 314 312 311 307 303 301 299 299 300 299 299 301 302 303 305 304 301 297 295 294 294 294 293 289 288 287 287 286 284 282 283 284 285 285 285 285 285 285 285 285 283 281 278 276 274 273 271 270 267 266 266 266 266 262 254 248 246 245 245 244 242 242 240 237 235 234 231 229 230 229
298 300 304 309 312 315 315 314 314 314 315 315 312 311 313 314 311 309 305 302 300 298 298 300 300 300 302 303 304 305 304 300 296 293 292 292 293 293 290 289 289 288 285 284 283 284 285 284 283 283 281 281 282 282 282 282 280 277 276 275 274 274 273 271 267 261 258 259 260 255 247 242 240 240 240 239 239 239 236 236 235 232 231 231 231
300 304 309 312 315 317 316 316 316 316 316 316 312 310 313 313 310 306 303 300 297 296 298 300 300 300 302 304 305 305 303 299 297 294 292 291 292 293 291 290 290 287 285 284 283 284 284 282 281 279 279 280 282 283 284 283 282 280 279 279 277 276 276 276 272 264 256 252 254 253 247 241 237 236 236 237 238 238 236 236 236 234 233 233 232
303 307 312 315 318 320 318 317 318 317 317 316 312 310 312 310 306 304 302 298 295 295 296 298 299 299 300 302 302 302 300 298 297 297 294 291 290 290 289 288 287 285 284 282 282 281 281 281 282 283 285 287 288 288 287 285 283 281 280 279 277 275 273 274 275 271 260 250 250 251 248 243 238 236 236 236 237 237 235 234 236 235 234 234 234
305 310 314 317 320 321 319 318 320 319 318 316 312 311 311 308 304 302 300 297 295 294 295 297 298 298 298 298 297 296 297 297 297 298 298 295 292 289 286 283 282 281 280 278 277 278 278 280 283 285 286 287 287 285 282 280 279 279 278 277 276 273 271 272 273 272 265 255 251 251 250 246 239 236 236 234 232 232 232 230 231 231 230 230 231
307 312 317 320 321 322 320 318 319 318 317 316 314 312 311 307 301 298 297 296 295 294 295 296 297 296 294 293 291 293 298 299 299 299 299 296 292 289 285 282 279 277 276 275 274 275 275 275 276 275 276 279 280 279 278 277 277 276 275 275 276 275 274 273 272 270 267 259 253 252 252 247 239 232 230 229 227 228 228 226 226 227 225 224 225
309 313 319 321 321 322 319 317 317 317 317 317 315 313 312 308 302 298 297 297 295 294 294 294 294 294 293 292 292 295 298 298 299 300 299 296 293 291 289 288 285 280 276 276 275 274 272 271 269 267 268 270 272 273 273 272 272 272 272 273 275 274 275 276 273 272 271 262 252 250 251 246 235 227 225 224 224 225 225 223 223 224 221 217 219
310 314 319 321 321 320 318 317 317 317 317 317 315 313 312 308 301 298 299 298 293 291 294 296 296 296 295 294 296 297 298 299 300 301 301 299 299 299 298 296 294 290 287 286 285 282 277 273 269 266 265 266 268 270 272 271 271 270 270 272 272 272 272 273 272 276 276 262 246 244 248 244 233 226 222 221 222 224 223 221 221 221 216 211 213
310 314 318 319 318 318 317 317 318 318 318 317 316 314 313 309 300 295 295 297 294 293 294 296 299 300 299 299 299 298 298 301 303 303 303 303 303 304 303 302 300 299 299 300 300 299 295 289 284 280 278 276 275 276 276 275 272 268 267 269 269 269 270 271 274 281 282 265 243 238 244 242 234 225 218 216 219 221 220 220 219 216 209 205 210
309 313 316 316 316 316 315 316 318 318 317 316 315 313 313 314 313 307 299 296 298 300 301 301 301 301 301 302 303 303 301 303 305 305 306 306 308 308 307 306 305 305 305 306 305 302 298 293 290 289 286 283 281 281 279 277 272 266 264 265 267 269 270 272 274 282 285 273 251 241 242 242 239 234 224 217 216 217 215 216 216 212 207 206 208
306 310 312 313 314 315 315 316 317 317 317 317 315 313 311 313 318 321 320 314 307 305 305 306 306 307 306 306 307 307 306 307 308 309 310 311 312 311 310 311 311 310 311 312 310 305 302 298 294 293 291 287 285 284 282 279 275 268 263 263 266 268 269 270 273 278 282 278 262 247 243 241 239 237 231 222 217 213 208 206 206 206 206 208 211
304 306 309 311 313 314 315 316 316 315 316 315 313 311 310 308 311 317 323 326 324 321 318 314 310 310 311 311 310 310 310 312 313 314 314 315 315 315 317 318 317 315 316 316 311 305 302 298 292 290 289 287 285 285 284 282 278 272 265 261 262 265 268 270 273 276 279 277 268 257 251 246 239 235 229 220 211 206 200 198 200 201 203 206 211
304 305 308 309 309 311 314 315 315 315 314 312 309 308 309 309 308 309 314 321 326 329 329 329 327 324 321 319 317 316 316 317 317 317 318 319 320 322 324 323 322 321 321 319 312 304 299 296 293 292 292 291 290 289 288 285 281 274 267 261 260 263 268 271 272 274 277 277 271 263 257 249 239 230 223 213 205 200 196 194 194 197 201 205 207
304 307 310 310 309 311 314 315 315 314 311 310 309 308 308 309 310 309 309 311 314 316 319 323 326 327 326 324 322 322 322 322 321 321 323 325 327 330 332 331 329 329 327 322 315 308 303 300 299 299 299 298 296 294 292 289 284 275 266 262 262 264 267 268 269 272 275 274 269 263 257 249 235 222 212 203 198 197 194 192 194 197 200 203 203
305 307 310 312 313 315 316 317 316 313 310 308 308 308 309 309 309 308 308 308 308 307 307 312 318 322 324 325 324 324 325 324 324 325 327 330 333 335 335 331 326 324 321 316 312 307 304 303 304 304 303 302 300 298 295 291 285 276 266 262 262 263 265 266 267 270 273 270 264 260 257 249 234 220 207 198 198 198 196 194 196 198 201 202 200
304 306 309 314 318 318 317 316 314 311 308 307 307 309 311 311 311 311 310 308 309 310 310 312 317 322 326 329 331 330 328 326 326 327 330 334 336 336 331 324 321 318 314 312 312 309 305 305 306 306 306 305 303 303 303 297 287 275 267 264 261 259 261 263 265 267 268 265 259 256 255 250 235 218 206 199 199 201 200 198 198 201 202 201 195
301 305 310 314 315 313 313 313 313 312 310 310 311 314 314 313 313 313 311 312 313 313 313 315 318 320 322 327 331 333 331 329 331 333 335 337 338 336 331 325 321 318 314 313 314 312 307 306 306 307 309 309 307 309 313 311 297 278 267 265 264 262 263 265 265 265 263 260 256 254 252 248 235 218 208 203 202 202 202 201 199 198 197 194 189
300 305 310 312 311 308 308 310 311 314 315 316 318 318 317 316 316 315 314 316 317 316 316 317 318 320 322 325 329 333 334 335 336 335 334 335 336 335 332 328 325 323 320 318 318 315 310 307 307 308 310 311 312 314 320 323 317 299 280 270 266 266 267 268 268 267 261 256 253 252 248 245 238 224 213 209 207 205 202 199 196 193 189 188 187
299 303 309 315 314 309 309 311 314 317 319 319 320 321 318 317 317 316 317 319 318 317 318 318 319 323 327 328 331 336 338 336 333 331 330 331 332 333 332 330 327 324 322 321 320 319 315 312 312 314 314 316 319 320 321 325 329 325 312 295 281 275 273 274 273 268 261 254 250 246 242 239 232 221 213 212 211 206 199 195 193 191 189 187 185
298 300 306 315 316 312 312 316 319 322 322 320 321 322 320 319 318 317 319 320 318 317 319 321 321 326 330 331 335 341 341 335 332 332 331 330 330 331 331 330 328 326 324 323 322 322 319 316 317 319 320 320 322 324 325 328 332 333 330 324 314 302 293 289 282 272 262 256 250 244 238 231 220 211 207 205 203 199 193 189 188 186 183 180 174
295 298 305 314 316 314 317 321 323 326 326 325 326 325 322 320 320 320 322 322 320 319 321 323 326 331 334 336 338 342 343 340 338 337 336 335 334 333 333 333 332 331 329 328 327 325 323 321 322 324 325 325 326 330 334 338 339 337 336 334 331 324 317 309 299 286 272 260 249 239 230 220 209 203 198 193 187 182 179 176 175 173 169 166 162
292 297 305 311 314 316 321 326 329 330 330 329 327 327 325 323 322 324 326 325 323 323 324 325 328 333 338 341 343 345 347 346 345 342 341 340 339 339 339 339 338 337 336 335 334 333 331 330 330 331 333 335 337 339 343 344 344 342 341 341 341 339 335 330 323 310 290 266 242 224 209 198 190 183 178 174 171 167 164 163 162 160 159 156 155
290 296 300 306 313 320 325 331 333 333 333 331 328 328 329 327 327 331 332 328 327 328 327 327 329 333 337 342 347 348 349 349 348 346 346 345 343 343 344 345 345 345 344 342 342 342 341 341 342 343 344 347 351 353 354 354 352 350 349 350 352 352 350 348 344 336 318 280 217 185 174 170 168 165 163 162 160 156 154 154 154 152 151 150 149
286 291 297 303 312 319 327 334 336 335 335 335 332 332 333 331 331 335 334 331 331 332 331 331 333 334 336 341 345 346 347 348 349 349 349 348 347 348 349 350 351 351 350 349 349 349 350 350 351 352 354 357 2 5 6 6 5 4 2 1 1 0 360 357 352 345 336 308 168 152 149 148 151 151 151 152 153 151 149 150 150 148 148 148 149
282 287 293 300 309 318 325 330 334 336 338 337 333 331 332 333 335 336 335 335 337 336 334 335 338 338 339 341 343 344 346 348 350 351 351 351 352 352 352 354 356 357 357 356 357 358 359 359 358 358 359 3 7 11 13 14 14 14 12 10 7 5 4 3 359 359 4 48 146 146 142 139 138 141 143 144 144 143 142 143 145 145 145 146 147
280 284 289 296 305 314 321 325 328 332 335 336 332 329 329 332 335 337 339 341 342 339 338 339 341 342 343 344 344 345 347 348 349 351 353 354 355 356 356 357 359 1 3 3 3 5 7 7 5 3 3 5 10 14 16 17 17 17 16 15 12 8 6 7 10 20 40 86 126 135 133 128 126 129 133 134 134 133 133 135 137 139 140 141 142
279 281 287 295 303 309 314 319 323 326 329 330 328 326 327 331 335 339 342 344 344 342 341 342 343 344 345 346 347 349 350 351 352 355 357 358 360 1 1 1 2 2 5 8 10 10 11 11 11 10 9 8 10 13 15 17 19 19 18 17 15 13 13 17 25 37 57 88 114 124 125 122 119 120 122 124 125 126 126 126 129 131 133 135 137
278 281 286 294 302 306 309 313 316 319 323 324 321 322 327 331 334 339 343 344 344 343 342 341 342 344 346 348 350 352 354 355 357 359 0 1 3 5 6 7 7 7 8 10 13 14 14 14 14 15 15 15 15 14 15 16 18 19 20 19 18 18 22 29 37 49 67 87 103 114 118 117 114 114 115 117 119 120 121 122 124 127 128 129 131
276 281 287 294 300 301 302 306 310 313 315 314 313 317 323 327 331 338 342 342 342 342 342 342 343 344 346 349 351 353 355 357 358 359 0 2 5 7 9 9 10 10 11 12 15 17 18 18 16 16 18 19 20 20 19 19 19 19 20 20 21 24 29 36 44 56 71 87 98 106 110 111 110 109 110 112 114 114 115 116 119 121 121 121 122
277 281 286 292 296 298 298 302 308 311 310 307 308 312 317 321 326 334 339 338 338 338 338 339 341 343 345 348 350 351 353 356 357 359 1 4 6 8 9 10 10 11 12 14 16 19 21 22 20 19 18 20 21 21 22 22 23 22 22 23 25 28 31 37 47 59 71 86 96 101 103 104 104 104 105 108 110 110 110 111 112 114 114 114 115